loading
DOY 171 | 2024-06-19T22:18:36Z

ATLAS CENTAUR 2 DEB, 698

Orbit data source: Space-Track

ATLAS CENTAUR 2 DEB, 698 is space debris in LEO originally from a launch on Wed, 27 Nov 1963 UTC launched from the Air Force Eastern Test Range (AFETR). Debris objects in space refer to the collection of defunct objects orbiting the Earth. Examples of debris include non-operational satellites, rocket bodies, and fragments generated from explosions, collisions, or faulty payload assembly.

Loading next visibility...
Loading greatness...
ATLAS CENTAUR 2 DEB details
NORAD ID698
COSPAR ID
1963-047D
Orbit
LEO
Last TLE update14 hours ago
Origin
Flag of USNASA LeRC (US)
ManufacturerGD/Convair
BusCentaur part
MotorUnknown
MassWet unknown, Dry mass unknown
Launch date (UTC)
1963-11-27 (61 years ago)
Launch vehicleUnknown
Launch site
Air Force Eastern Test Range (AFETR)
Object type
Payload
Rocket body
Debris
Radar Cross Section0.3 m², Medium (>0.1 m² and < 1m²)
Predictive object data (real-time)
Latitude-29.03599°
Longitude77.41429°
Altitude1,030.717 km
Speed7.322 km/s
Apparent Right ascension04h 53m 20s
Apparent Declination-70° 55' 18"
Sunlit
Object is in daylight
Predictive observer data (real-time)
Local Sidereal Time09:12:39
Azimuth199.971° SSW
Elevation-29.987°
Doppler factor1
Orbital elements
Apogee1,394.391 km
Perigee599.723 km
Semi-major axis7,375.194 km
Eccentricity0.0538744
Inclination29.921°
RAAN193.116°
Arg. of periapsis182.0062°
True anomaly178.05105°
Mean anomaly177.8323°
Mean motion3.42675 °/min
BSTAR0.00026751
Period105.06 mins
Definitive object data (Epoch: 2024-06-19T08:44:00.896Z)
Latitude-0.00001°
Longitude154.0409°
Altitude1,388.56 km
Speed6.972 km/s
True Right ascension12h 52m 27s
True Declination0° 00' 00"
Sunlit
Object was in daylight at TLE epoch
TLE from 14 hours ago
0 ATLAS CENTAUR 2 DEB
1 00698U 63047D   24171.36389927  .00000787  00000-0  26751-3 0  9991
2 00698  29.9210 193.1160 0538744 182.0062 177.8323 13.71751427978923
Epoch: 2024-06-19T08:44Z
No data available

ATLAS CENTAUR 2 DEB Visibility forecast

Observer location: 39.9160978°, -105.1181434, 0m alt.

ATLAS CENTAUR 2 DEB is not visible in the next 10 days
Span
Click to sort rows by Start time (UTC) header in descending order
Start Az.
Max El. time (UTC)
Max El. Az.
Max El.
End time (UTC)
End Az.